• In Netherlands
  • List of Countries
  • For 7 days
  • Water Temperature
  • Satellite Maps
  • Weather Map
  • Weather Widgets
  • user-avatar
    Login

    Hourly Weather Jalalabad

    Today, 30 March, Thursday

    Time Temperature Precipitation Wind Pressure Humidity
    00:00 +23°C° 0 mm 1 mps 709 mmHg 41%
    01:00 +23°C° 0 mm 2 mps 709 mmHg 42%
    02:00 +23°C° 0 mm 2 mps 709 mmHg 42%
    03:00 +21°C° 0.1 mm 2 mps 709 mmHg 43%
    04:00 +21°C° 0.1 mm 2 mps 709 mmHg 44%
    05:00 +20°C° 0.1 mm 2 mps 709 mmHg 45%
    06:00 +23°C° 0 mm 2 mps 709 mmHg 42%
    07:00 +24°C° 0 mm 2 mps 710 mmHg 40%
    08:00 +25°C° 0 mm 2 mps 710 mmHg 37%
    09:00 +26°C° 0 mm 2 mps 710 mmHg 35%
    10:00 +28°C° 0 mm 2 mps 710 mmHg 32%
    11:00 +29°C° 0 mm 1 mps 710 mmHg 30%
    12:00 +30°C° 0.1 mm 1 mps 710 mmHg 29%
    13:00 +30°C° 0.1 mm 1 mps 710 mmHg 27%
    14:00 +31°C° 0.1 mm 1 mps 709 mmHg 26%
    15:00 +31°C° 0.2 mm 1 mps 709 mmHg 27%
    16:00 +31°C° 0.2 mm 1 mps 709 mmHg 27%
    17:00 +30°C° 0.2 mm 1 mps 709 mmHg 27%
    18:00 +29°C° 0.4 mm 1 mps 709 mmHg 32%
    19:00 +27°C° 0.4 mm 1 mps 709 mmHg 36%
    20:00 +25°C° 0.4 mm 1 mps 709 mmHg 40%
    21:00 +25°C° 0.2 mm 2 mps 710 mmHg 41%
    22:00 +24°C° 0.2 mm 2 mps 710 mmHg 42%
    23:00 +24°C° 0.2 mm 2 mps 710 mmHg 43%

    Tomorrow, 31 March, Friday

    Time Temperature Precipitation Wind Pressure Humidity
    00:00 +23°C° 0.2 mm 2 mps 710 mmHg 44%
    01:00 +23°C° 0.2 mm 2 mps 709 mmHg 45%
    02:00 +21°C° 0.2 mm 2 mps 709 mmHg 46%
    03:00 +21°C° 0.1 mm 2 mps 709 mmHg 46%
    04:00 +21°C° 0.1 mm 2 mps 709 mmHg 47%
    05:00 +20°C° 0.1 mm 2 mps 709 mmHg 48%
    06:00 +21°C° 0.1 mm 2 mps 709 mmHg 45%
    07:00 +24°C° 0.1 mm 2 mps 710 mmHg 41%
    08:00 +25°C° 0.1 mm 2 mps 710 mmHg 38%
    09:00 +26°C° 0.1 mm 1 mps 710 mmHg 36%
    10:00 +27°C° 0.1 mm 1 mps 710 mmHg 34%
    11:00 +29°C° 0.1 mm 1 mps 711 mmHg 32%
    12:00 +29°C° 0.1 mm 1 mps 710 mmHg 31%
    13:00 +30°C° 0.1 mm 2 mps 710 mmHg 30%
    14:00 +31°C° 0.1 mm 2 mps 709 mmHg 29%
    15:00 +30°C° 0.2 mm 2 mps 709 mmHg 29%
    16:00 +30°C° 0.2 mm 2 mps 709 mmHg 30%
    17:00 +30°C° 0.2 mm 2 mps 708 mmHg 31%
    18:00 +28°C° 0.3 mm 1 mps 709 mmHg 36%
    19:00 +26°C° 0.3 mm 1 mps 709 mmHg 40%
    20:00 +25°C° 0.3 mm 1 mps 709 mmHg 45%
    21:00 +24°C° 0.2 mm 1 mps 709 mmHg 45%
    22:00 +23°C° 0.2 mm 1 mps 710 mmHg 45%
    23:00 +23°C° 0.2 mm 1 mps 710 mmHg 45%

    Day after tomorrow, 1 April, Saturday

    Time Temperature Precipitation Wind Pressure Humidity
    00:00 +22°C° 0 mm 1 mps 710 mmHg 45%
    01:00 +22°C° 0 mm 1 mps 709 mmHg 45%
    02:00 +20°C° 0 mm 2 mps 709 mmHg 44%
    03:00 +20°C° 0 mm 2 mps 709 mmHg 43%
    04:00 +20°C° 0 mm 2 mps 709 mmHg 42%
    05:00 +19°C° 0 mm 2 mps 709 mmHg 42%
    06:00 +21°C° 0 mm 2 mps 709 mmHg 39%
    07:00 +23°C° 0 mm 2 mps 710 mmHg 36%
    08:00 +25°C° 0 mm 2 mps 710 mmHg 33%
    09:00 +26°C° 0 mm 2 mps 710 mmHg 28%
    10:00 +28°C° 0 mm 3 mps 710 mmHg 24%
    11:00 +30°C° 0 mm 3 mps 711 mmHg 20%
    12:00 +30°C° 0 mm 3 mps 710 mmHg 18%
    13:00 +31°C° 0 mm 3 mps 709 mmHg 17%
    14:00 +33°C° 0 mm 3 mps 709 mmHg 15%
    15:00 +31°C° 0 mm 3 mps 708 mmHg 15%
    16:00 +31°C° 0 mm 2 mps 708 mmHg 16%
    17:00 +31°C° 0 mm 2 mps 708 mmHg 16%
    18:00 +28°C° 0 mm 2 mps 707 mmHg 19%
    19:00 +26°C° 0 mm 1 mps 707 mmHg 22%
    20:00 +24°C° 0 mm 1 mps 707 mmHg 26%
    21:00 +23°C° 0 mm 1 mps 707 mmHg 26%
    22:00 +23°C° 0 mm 1 mps 707 mmHg 26%
    23:00 +23°C° 0 mm 1 mps 708 mmHg 26%

    2 April, Sunday

    Time Temperature Precipitation Wind Pressure Humidity
    00:00 +22°C° 0 mm 1 mps 707 mmHg 26%
    01:00 +21°C° 0 mm 2 mps 707 mmHg 26%
    02:00 +20°C° 0 mm 2 mps 706 mmHg 26%
    03:00 +20°C° 0 mm 2 mps 706 mmHg 27%
    04:00 +21°C° 0 mm 1 mps 706 mmHg 27%
    05:00 +20°C° 0 mm 1 mps 706 mmHg 28%
    06:00 +22°C° 0 mm 1 mps 706 mmHg 26%
    07:00 +24°C° 0 mm 1 mps 707 mmHg 24%
    08:00 +25°C° 0 mm 1 mps 707 mmHg 22%
    09:00 +27°C° 0 mm 1 mps 708 mmHg 20%
    10:00 +28°C° 0 mm 1 mps 708 mmHg 18%
    11:00 +29°C° 0 mm 1 mps 708 mmHg 16%
    12:00 +30°C° 0 mm 1 mps 707 mmHg 16%
    13:00 +31°C° 0 mm 2 mps 707 mmHg 16%
    14:00 +31°C° 0 mm 2 mps 706 mmHg 16%
    15:00 +31°C° 0.1 mm 2 mps 706 mmHg 17%
    16:00 +31°C° 0.1 mm 2 mps 706 mmHg 19%
    17:00 +30°C° 0.1 mm 2 mps 705 mmHg 21%
    18:00 +28°C° 0.2 mm 2 mps 706 mmHg 24%
    19:00 +27°C° 0.2 mm 2 mps 706 mmHg 27%
    20:00 +25°C° 0.2 mm 2 mps 706 mmHg 31%
    21:00 +25°C° 0.2 mm 2 mps 706 mmHg 33%
    22:00 +24°C° 0.2 mm 2 mps 706 mmHg 36%
    23:00 +24°C° 0.2 mm 2 mps 706 mmHg 38%

    3 April, Monday

    Time Temperature Precipitation Wind Pressure Humidity
    00:00 +23°C° 0.2 mm 2 mps 706 mmHg 40%
    01:00 +23°C° 0.2 mm 2 mps 706 mmHg 43%
    02:00 +21°C° 0.2 mm 2 mps 706 mmHg 45%
    03:00 +20°C° 0.2 mm 2 mps 705 mmHg 48%
    04:00 +20°C° 0.2 mm 2 mps 705 mmHg 50%
    05:00 +20°C° 0.2 mm 1 mps 705 mmHg 52%
    06:00 +21°C° 0 mm 1 mps 705 mmHg 49%
    07:00 +22°C° 0 mm 1 mps 706 mmHg 45%
    08:00 +22°C° 0 mm 0 mps 706 mmHg 42%
    09:00 +25°C° 0 mm 1 mps 706 mmHg 39%
    10:00 +26°C° 0 mm 1 mps 706 mmHg 35%
    11:00 +28°C° 0 mm 1 mps 706 mmHg 32%
    12:00 +28°C° 0.1 mm 2 mps 706 mmHg 30%
    13:00 +29°C° 0.1 mm 2 mps 705 mmHg 28%
    14:00 +30°C° 0.1 mm 2 mps 705 mmHg 27%
    15:00 +29°C° 0.4 mm 2 mps 705 mmHg 29%
    16:00 +29°C° 0.4 mm 2 mps 704 mmHg 31%
    17:00 +28°C° 0.4 mm 2 mps 704 mmHg 32%
    18:00 +27°C° 0.4 mm 2 mps 704 mmHg 38%
    19:00 +25°C° 0.4 mm 2 mps 705 mmHg 43%
    20:00 +24°C° 0.4 mm 1 mps 705 mmHg 48%
    21:00 +23°C° 0.2 mm 2 mps 705 mmHg 48%
    22:00 +23°C° 0.2 mm 2 mps 705 mmHg 49%
    23:00 +21°C° 0.2 mm 2 mps 705 mmHg 50%

    4 April, Tuesday

    Time Temperature Precipitation Wind Pressure Humidity
    00:00 +21°C° 0.3 mm 2 mps 705 mmHg 51%
    01:00 +20°C° 0.3 mm 2 mps 704 mmHg 51%
    02:00 +20°C° 0.3 mm 2 mps 704 mmHg 52%
    03:00 +20°C° 0.2 mm 2 mps 704 mmHg 52%
    04:00 +19°C° 0.2 mm 2 mps 704 mmHg 53%
    05:00 +19°C° 0.2 mm 2 mps 704 mmHg 53%
    06:00 +20°C° 0.1 mm 2 mps 704 mmHg 51%
    07:00 +21°C° 0.1 mm 2 mps 705 mmHg 48%
    08:00 +23°C° 0.1 mm 2 mps 705 mmHg 46%
    09:00 +24°C° 0.2 mm 2 mps 705 mmHg 44%
    10:00 +25°C° 0.2 mm 2 mps 705 mmHg 43%
    11:00 +26°C° 0.2 mm 2 mps 706 mmHg 42%
    12:00 +26°C° 0.6 mm 3 mps 705 mmHg 42%
    13:00 +26°C° 0.6 mm 3 mps 704 mmHg 42%
    14:00 +27°C° 0.6 mm 4 mps 704 mmHg 43%
    15:00 +26°C° 1.2 mm 4 mps 703 mmHg 47%
    16:00 +25°C° 1.2 mm 3 mps 702 mmHg 52%
    17:00 +24°C° 1.2 mm 3 mps 702 mmHg 56%
    18:00 +22°C° 1.3 mm 3 mps 702 mmHg 61%
    19:00 +21°C° 1.3 mm 3 mps 702 mmHg 66%
    20:00 +20°C° 1.3 mm 3 mps 702 mmHg 71%
    21:00 +19°C° 0.9 mm 3 mps 702 mmHg 71%
    22:00 +19°C° 0.9 mm 3 mps 702 mmHg 72%
    23:00 +18°C° 0.9 mm 3 mps 703 mmHg 72%
    Show more